Regional Weather Roundup
Issued by NWS

Home | Current Version | Previous Version | Graphics & Text | Print | Product List | Glossary On
Versions: 1 2 3 4 5 6 7 8 9 10 11 12 13 14 15 16 17 18 19 20 21 22 23 24 25 26 27 28 29 30 31 32 33 34 35 36 37 38 39 40 41 42 43 44 45 46 47 48 49 50
198
ASUS43 KOAX 180810
RWRNE

WEATHER ROUNDUP FOR NEBRASKA
NATIONAL WEATHER SERVICE OMAHA NE
200 AM CST SAT NOV 18 2017

NOTES: SATELLITE DATA IS BEING USED TO AUGMENT CLOUD COVER ABOVE
       12000 FEET.
       "FAIR" INDICATES FEW OR NO CLOUDS BELOW 12,000 FEET WITH NO
       SIGNIFICANT WEATHER AND/OR OBSTRUCTIONS TO VISIBILITY.


NEZ001>004-019>022-054>056-180900-
NEBRASKA PANHANDLE

CITY           SKY/WX    TMP DP  RH WIND       PRES   REMARKS
SCOTTSBLUFF    PTCLDY    36  24  62 NW18G25   29.96R WCI  26
ALLIANCE       MOCLDY    34  32  92 NW13      29.91R WCI  25
CHADRON        CLEAR     35  31  85 NW15      29.95R WCI  25
GORDON         FAIR      36  32  86 NW12      29.88R WCI  28
KIMBALL        CLOUDY    32  28  85 NW21G28   29.95R WCI  20
SIDNEY         MOCLDY    35  29  78 NW17      29.93R WCI  25
$$

NEZ057>060-069>072-079>082-180900-
SOUTHWEST NEBRASKA

CITY           SKY/WX    TMP DP  RH WIND       PRES   REMARKS
NORTH PLATTE   LGT RAIN  37  35  92 N10       29.83R WCI  30
LEXINGTON      LGT RAIN  39  36  86 N20G26    29.79R WCI  30
MCCOOK         LGT RAIN  41  39  93 N14       29.79R
OGALLALA       CLOUDY    40  36  86 N18       29.86R WCI  31
$$

NEZ005>010-023>029-035>040-094-180900-
NORTH CENTRAL NEBRASKA

CITY           SKY/WX    TMP DP  RH WIND       PRES   REMARKS
VALENTINE      CLOUDY    38  35  89 NW10      29.86R WCI  31
AINSWORTH      CLOUDY    36  36 100 NW10      29.84R WCI  28
BROKEN BOW     LGT RAIN  38  34  85 N20       29.80R WCI  28
O`NEILL        CLOUDY    37  34  87 N13       29.79R WCI  29
ORD            LGT RAIN  39  36  89 N18G25    29.77R WCI  30
THEDFORD       CLOUDY    36  35  96 N14       29.85R WCI  27
$$

NEZ041-046>049-061>064-073>077-083>087-180900-
SOUTH CENTRAL NEBRASKA

CITY           SKY/WX    TMP DP  RH WIND       PRES   REMARKS
GRAND ISLAND   LGT RAIN  39  38  96 N17       29.73R WCI  30
AURORA         LGT RAIN  39  38  98 N21G26    29.69R WCI  29
HASTINGS       RAIN      39  37  92 N22G32    29.73R WCI  29
HEBRON         CLOUDY    44  40  86 N10G24    29.64R
HOLDREGE       RAIN      39  39 100 N15G21    29.75R WCI  30
KEARNEY        LGT RAIN  39  37  92 N18       29.75R WCI  30
YORK           RAIN      39  39 100 N16G26    29.67R WCI  30
$$

NEZ011>018-030>034-042>045-180900-
NORTHEAST NEBRASKA

CITY           SKY/WX    TMP DP  RH WIND       PRES   REMARKS
NORFOLK        CLOUDY    39  37  92 N14       29.71R WCI  31
ALBION         RAIN      40  36  85 N17       29.73R WCI  31
BLAIR          RAIN      41  40  95 N23G30    29.59R
COLUMBUS       LGT RAIN  40  38  93 N15       29.69R WCI  32
FREMONT        LGT RAIN  41  39  94 N13G18    29.67R
TEKAMAH        CLOUDY    40  37  89 N16       29.64F WCI  31
WAYNE          CLOUDY    38  36  91 N13       29.72R WCI  30
$$

NEZ050>053-065>068-078-088>093-180900-
SOUTHEAST NEBRASKA

CITY           SKY/WX    TMP DP  RH WIND       PRES   REMARKS
LINCOLN        LGT RAIN  43  40  89 N18       29.64R
OMAHA EPPLEY   LGT RAIN  43  38  82 N15       29.60R
BEATRICE       CLOUDY    45  41  86 N16       29.61R
FALLS CITY     CLOUDY    51  49  92 N17G23    29.51R
NEBRASKA CITY  CLOUDY    46  46  97 NE22G30   29.55R
PLATTSMOUTH    CLOUDY    44  42  90 N10       29.59R
$$

NEZ044-045-051>053-067-180900-
OMAHA AREA

CITY           SKY/WX    TMP DP  RH WIND       PRES   REMARKS
OMAHA EPPLEY   LGT RAIN  43  38  82 N15       29.60R
BLAIR          RAIN      41  40  95 N23G30    29.59R
FREMONT        LGT RAIN  41  39  94 N13G18    29.67R
MILLARD        LGT RAIN  44  41  89 N9        29.59S
OFFUTT AFB     LGT RAIN  44  40  86 N10G21    29.59R
PLATTSMOUTH    CLOUDY    44  42  90 N10       29.59R
WAHOO          RAIN      42  40  93 N21G26    29.64R
$$




USA.gov is the U.S. government's official web portal to all federal, state and local government web resources and services.